Location: Horowhenua
(40.7500°S, 175.3333°E)
Time: 00:35:22
(UTC+00:00)

ASTRO E2 - Pass Details

Date: 28 January 2023
Orbit: 484 x 490 km, 31.4° (Epoch: 20 March)

Event Time Altitude Azimuth Distance (km) Brightness Sun altitude
Exits shadow 15:20:09 17° 32° (NNE) 1,333 4.6 -19.3°
Drops below altitude 10° 15:21:37 10° 51° (NE) 1,700 5.4 -19.1°
Enters shadow 16:22:01 -64° 255° (WSW) 11,985 9.5 -10.5°
